Regional Weather Roundup
Issued by NWS

Home | Current Version | Previous Version | Graphics & Text | Print | Product List | Glossary On
Versions: 1 2 3 4 5 6 7 8 9 10 11 12 13 14 15 16 17 18 19 20 21 22 23 24 25 26 27 28 29 30 31 32 33 34 35 36 37 38 39 40 41 42 43 44 45 46 47 48 49 50
000
ASUS45 KSLC 251110
RWRUT

UTAH REGIONAL WEATHER ROUNDUP
NATIONAL WEATHER SERVICE SALT LAKE CITY UT
500 AM MDT MON MAY 25 2015

UTZ001>011-023>025-251200-

NORTHERN UTAH

CITY           SKY/WX    TMP DP  RH WIND       PRES   REMARKS
BRIGHAM CITY   CLOUDY    54  50  86 CALM      29.93S
HILL AFB       CLOUDY    50  45  84 E8        29.94R
LOGAN          CLOUDY    51  48  89 E3        29.93R
OGDEN          CLOUDY    50  45  83 S5        29.93R
PROVO AIRPORT  CLOUDY    52  46  82 E3        29.95F
SALT LAKE CITY RAIN      53  47  79 S9        29.92S
VERNAL         CLOUDY    47  44  90 CALM      29.96S
WENDOVER       MOCLDY    52  45  76 W3        29.92S
HEBER CITY     CLOUDY    43  41  93 CALM      29.98R
WEST JORDAN    CLOUDY    50  48  93 S3        29.94S

$$

UTZ012>022-026-027-251200-

SOUTHERN/CENTRAL UTAH

CITY           SKY/WX    TMP DP  RH WIND       PRES   REMARKS
BLANDING       MOCLDY    45  43  93 N6        30.04R
BRYCE CANYON   MOCLDY    40  37  89 W9        30.05S WCI  34
CEDAR CITY     MOCLDY    46  43  89 CALM      29.99S
DELTA          MOCLDY    47  44  90 S6        29.96R
HANKSVILLE     MOCLDY    54  45  71 CALM      29.93R
MILFORD        PTCLDY    45  42  89 S6        29.97S
MOAB/CYNLANDS  CLEAR     52  43  71 E9        29.91S
PRICE          CLOUDY    47  37  68 SE3       29.95S
ST GEORGE      PTSUNNY   57  48  72 S3        29.96S
KANAB          CLOUDY    46  46 100 CALM      30.04S

$$

REGIONAL REPORTS     COLORADO/ARIZONA

CITY           SKY/WX    TMP DP  RH WIND       PRES   REMARKS
CRAIG, CO      CLOUDY    43  41  93 CALM      29.97F
GRAND JUNCTION CLOUDY    46  45  96 SE7       29.95S
RIFLE          CLOUDY    46  42  86 CALM      29.97F
MONTROSE       CLOUDY    46  44  93 S6        30.00S
CORTEZ         CLOUDY    47  44  90 NE5       29.98S
PAGE, AZ       PTCLDY    54  47  77 CALM      29.93S
GRAND CANYON   CLOUDY    45  43  93 W6        30.06S
KINGMAN        PTCLDY    54  50  86 CALM      29.95S
FLAGSTAFF      CLOUDY    43  40  89 W3        30.07S

$$

REGIONAL REPORTS    NEVADA/IDAHO/WYOMING

CITY           SKY/WX    TMP DP  RH WIND       PRES   REMARKS
LAS VEGAS, NV  MOCLDY    63  54  72 S8        29.87S
ELY            CLEAR     38  36  92 S10       30.04S WCI  31
ELKO           CLOUDY    45  42  89 CALM      29.98S
POCATELLO, ID  CLEAR     49  46  90 SW8       29.93S
BURLEY         CLOUDY    46  42  86 CALM      29.91S
EVANSTON, WY   LGT RAIN  42  40  92 W6        29.99S
ROCK SPRINGS   CLOUDY    41  39  93 CALM      29.99R
KEMMERER       CLOUDY    41  37  87 CALM      30.00S

$$



USA.gov is the U.S. government's official web portal to all federal, state and local government web resources and services.